Location: Falniów
(50.3639°N, 19.9642°E)
Time: 13:01:06
(UTC+00:00)

Cosmos 2082 Rocket - Pass Details

Date: 25 April 2026
Orbit: 831 x 853 km, 71.0° (Epoch: 19 May)

Event Time Altitude Azimuth Distance (km) Brightness Sun altitude
Exits shadow 01:57:01 - 281° (W) 3,112 4.8 -13.1°
Reaches altitude 10° 01:59:37 10° 299° (WNW) 2,490 4.4 -12.8°
Maximum altitude 02:02:45 15° 332° (NNW) 2,171 4.5 -12.4°
Drops below altitude 10° 02:05:53 10° 6° (N) 2,494 5.3 -12.0°
Sets 02:09:35 0° 30° (NNE) 3,430 6.8 -11.5°
